sat.trackr.live / text

‹ back to catalog

FLOCK 4Q-35

NORAD 58309 · 2023-174BF

PAYLOAD ACTIVE UNKNOWN

§ Identity

Operator
Country
US
Launch date
2023-11-11
Launch site
AFWTR
Launch vehicle
Mass (kg)
RCS (m²)

Purposes: earth_obs

External: N2YO · Heavens-Above · Gunter

§ Orbital elements

Epoch: 2026-06-27T19:43:48.926784Z

Period
92.43 min
Inclination
97.3885°
Eccentricity
0.0005778
Mean motion
15.57979635 rev/d
Perigee alt
389.6 km
Apogee alt
397.4 km
Semi-major
6,771.6 km
B*
4.0460e-4
RAAN
271.3101°
Arg perigee
120.1459°
Mean anomaly
240.0370°
Rev number
14,746

§ Raw data

FLOCK 4Q-351 58309U 23174BF  26178.82209406  .00030263  00000+0  40460-3 0  99972 58309  97.3885 271.3101 0005778 120.1459 240.0370 15.57979635147466

JSON: /api/v1/satellites/58309 · /tle

For live sub-satellite position, see the globe view (requires WebGL).

§ Visibility from observer

Set your observer location to see the next 7 days of passes ≥ 10°. The values pass through the URL so the page stays shareable.

No JS? Fill the form by hand. The geolocation button needs JavaScript.